 day,  time,  air_temp(C),  RH(%),  ground_temp10cm(C),  ground_temp20cm(C),  ground_temp40cm(C),  precipitation(mm/h),  Solar_Radiation(MJ/m2h),  lack, 
 05/12/01, 01:00,  -5.3,  88,   2.8,   3.9,   5.8,   0.0,  0.00, 
 05/12/01, 02:00,  -4.3,  76,   2.8,   3.9,   5.8,   0.0,  0.00, 
 05/12/01, 03:00,  -3.9,  58,   2.7,   3.9,   5.8,   0.0,  0.00, 
 05/12/01, 04:00,  -5.1,  72,   2.7,   3.9,   5.8,   0.0,  0.00, 
 05/12/01, 05:00,  -5.1,  77,   2.6,   3.8,   5.8,   0.0,  0.00, 
 05/12/01, 06:00,  -5.3,  74,   2.6,   3.8,   5.7,   0.0,  0.00, 
 05/12/01, 07:00,  -4.1,  59,   2.5,   3.8,   5.7,   0.0,  0.00, 
 05/12/01, 08:00,  -3.0,  67,   2.4,   3.8,   5.7,   0.0,  0.20, 
 05/12/01, 09:00,   0.2,  46,   2.3,   3.7,   5.7,   0.0,  1.01, 
 05/12/01, 10:00,   0.0,  57,   2.3,   3.7,   5.7,   0.0,  1.58, 
 05/12/01, 11:00,  -1.1,  84,   2.2,   3.7,   5.7,   0.0,  1.97, 
 05/12/01, 12:00,   0.0,  63,   2.2,   3.6,   5.7,   0.0,  2.09, 
 05/12/01, 13:00,   1.1,  50,   2.2,   3.6,   5.7,   0.0,  2.02, 
 05/12/01, 14:00,   1.3,  49,   2.2,   3.6,   5.7,   0.0,  1.40, 
 05/12/01, 15:00,   1.0,  47,   2.3,   3.5,   5.7,   0.0,  0.81, 
 05/12/01, 16:00,   0.5,  53,   2.4,   3.5,   5.7,   0.0,  0.28, 
 05/12/01, 17:00,  -0.1,  48,   2.4,   3.5,   5.6,   0.0,  0.06, 
 05/12/01, 18:00,  -1.3,  53,   2.4,   3.5,   5.5,   0.0,  0.00, 
 05/12/01, 19:00,  -1.1,  53,   2.4,   3.5,   5.6,   0.0,  0.00, 
 05/12/01, 20:00,  -0.7,  58,   2.3,   3.5,   5.6,   0.0,  0.00, 
 05/12/01, 21:00,   0.3,  61,   2.3,   3.5,   5.6,   0.0,  0.00, 
 05/12/01, 22:00,   0.4,  65,   2.2,   3.5,   5.6,   0.0,  0.00, 
 05/12/01, 23:00,   0.8,  67,   2.2,   3.4,   5.6,   0.0,  0.00, 
 05/12/02, 00:00,   0.6,  72,   2.1,   3.4,   5.6,   0.5,  0.00, 
 05/12/02, 01:00,   0.2,  80,   2.0,   3.4,   5.6,   0.0,  0.00, 
 05/12/02, 02:00,  -0.2,  86,   2.0,   3.4,   5.5,   0.0,  0.00, 
 05/12/02, 03:00,  -0.8,  98,   2.0,   3.4,   5.5,   0.0,  0.00, 
 05/12/02, 04:00,  -0.6,  98,   2.0,   3.4,   5.5,   0.0,  0.00, 
 05/12/02, 05:00,  -0.6,  99,   2.1,   3.3,   5.5,   0.5,  0.00, 
 05/12/02, 06:00,  -0.8,  99,   2.1,   3.3,   5.5,   1.0,  0.00, 
 05/12/02, 07:00,  -0.6,  99,   2.0,   3.3,   5.5,   0.5,  0.00, 
 05/12/02, 08:00,   0.0,  98,   2.0,   3.3,   5.5,   0.0,  0.00, 
 05/12/02, 09:00,   0.4,  97,   2.1,   3.3,   5.5,   0.0,  0.00, 
 05/12/02, 10:00,  -0.4,  99,   2.0,   3.3,   5.5,   1.0,  0.08, 
 05/12/02, 11:00,   0.2,  99,   2.1,   3.3,   5.4,   0.5,  0.16, 
 05/12/02, 12:00,  -0.1,  99,   2.1,   3.3,   5.4,   0.0,  0.17, 
 05/12/02, 13:00,   0.4,  99,   2.2,   3.3,   5.4,   0.5,  0.19, 
 05/12/02, 14:00,   0.0,  99,   2.2,   3.3,   5.4,   0.0,  0.14, 
 05/12/02, 15:00,   0.9,  85,   2.2,   3.3,   5.4,   0.0,  0.14, 
 05/12/02, 16:00,  -0.1,  94,   2.2,   3.3,   5.4,   0.0,  0.00, 
 05/12/02, 17:00,  -0.5,  96,   2.2,   3.3,   5.4,   0.0,  0.00, 
 05/12/02, 18:00,  -0.6,  96,   2.2,   3.2,   5.4,   0.0,  0.00, 
 05/12/02, 19:00,  -1.1,  99,   2.3,   3.2,   5.4,   0.0,  0.00, 
 05/12/02, 20:00,  -1.4,  99,   2.2,   3.3,   5.3,   0.5,  0.00, 
 05/12/02, 21:00,  -1.9,  99,   2.2,   3.3,   5.3,   0.0,  0.00, 
 05/12/02, 22:00,  -2.3,  99,   2.2,   3.3,   5.2,   0.0,  0.00, 
 05/12/02, 23:00,  -2.7,  99,   2.2,   3.3,   5.3,   0.0,  0.00, 
 05/12/03, 00:00,  -3.4,  99,   2.2,   3.3,   5.3,   0.5,  0.00, 
 05/12/03, 01:00,  -3.5,  99,   2.2,   3.3,   5.2,   0.0,  0.00, 
 05/12/03, 02:00,  -3.9,  99,   2.2,   3.3,   5.3,   0.0,  0.00, 
 05/12/03, 03:00,  -4.3,  98,   2.2,   3.3,   5.2,   0.0,  0.00, 
 05/12/03, 04:00,  -4.7,  98,   2.2,   3.3,   5.2,   0.0,  0.00, 
 05/12/03, 05:00,  -5.3,  95,   2.2,   3.3,   5.3,   0.0,  0.00, 
 05/12/03, 06:00,  -5.3,  96,   2.2,   3.3,   5.2,   0.0,  0.00, 
 05/12/03, 07:00,  -5.5,  96,   2.2,   3.3,   5.3,   0.0,  0.00, 
 05/12/03, 08:00,  -4.9,  99,   2.2,   3.3,   5.3,   0.0,  0.06, 
 05/12/03, 09:00,  -4.5,  99,   2.1,   3.3,   5.2,   0.0,  0.26, 
 05/12/03, 10:00,  -4.1,  99,   2.1,   3.3,   5.2,   0.0,  0.53, 
 05/12/03, 11:00,  -3.0,  99,   2.1,   3.2,   5.2,   0.0,  0.85, 
 05/12/03, 12:00,  -2.5,  98,   2.1,   3.2,   5.2,   0.0,  0.37, 
 05/12/03, 13:00,  -2.4,  99,   2.1,   3.2,   5.2,   0.0,  0.54, 
 05/12/03, 14:00,  -2.3,  98,   2.2,   3.2,   5.2,   0.5,  0.34, 
 05/12/03, 15:00,  -3.1,  99,   2.2,   3.2,   5.2,   0.0,  0.12, 
 05/12/03, 16:00,  -3.6,  99,   2.2,   3.2,   5.2,   0.5,  0.07, 
 05/12/03, 17:00,  -3.8,  94,   2.2,   3.1,   5.2,   0.0,  0.00, 
 05/12/03, 18:00,  -4.0,  97,   2.2,   3.2,   5.2,   0.0,  0.00, 
 05/12/03, 19:00,  -4.3,  95,   2.2,   3.2,   5.2,   0.0,  0.00, 
 05/12/03, 20:00,  -4.4,  96,   2.2,   3.1,   5.1,   0.5,  0.00, 
 05/12/03, 21:00,  -4.4,  95,   2.2,   3.1,   5.1,   0.0,  0.00, 
 05/12/03, 22:00,  -4.6,  91,   2.2,   3.1,   5.1,   0.0,  0.00, 
 05/12/03, 23:00,  -4.5,  87,   2.2,   3.1,   5.2,   0.0,  0.00, 
 05/12/04, 00:00,  -4.6,  95,   2.2,   3.1,   5.1,   0.0,  0.00, 
 05/12/04, 01:00,  -4.5,  93,   2.2,   3.2,   5.2,   0.0,  0.00, 
 05/12/04, 02:00,  -4.9,  91,   2.2,   3.2,   5.2,   0.0,  0.00, 
 05/12/04, 03:00,  -4.4,  84,   2.2,   3.2,   5.2,   0.0,  0.00, 
 05/12/04, 04:00,  -4.3,  84,   2.1,   3.2,   5.2,   0.0,  0.00, 
 05/12/04, 05:00,  -4.1,  83,   2.1,   3.2,   5.2,   0.0,  0.00, 
 05/12/04, 06:00,  -4.4,  94,   2.1,   3.1,   5.0,   0.0,  0.00, 
 05/12/04, 07:00,  -4.2,  84,   2.1,   3.2,   5.1,   0.0,  0.00, 
 05/12/04, 08:00,  -4.2,  91,   2.1,   3.1,   5.0,   0.0,  0.01, 
 05/12/04, 09:00,  -3.4,  88,   2.1,   3.1,   5.0,   0.0,  0.14, 
 05/12/04, 10:00,  -2.7,  79,   2.1,   3.1,   5.0,   0.0,  0.32, 
 05/12/04, 11:00,  -2.3,  86,   2.1,   3.1,   5.0,   0.0,  0.52, 
 05/12/04, 12:00,  -1.5,  81,   2.1,   3.2,   5.1,   0.0,  1.05, 
 05/12/04, 13:00,  -1.0,  83,   2.1,   3.2,   5.1,   0.0,  1.40, 
 05/12/04, 14:00,  -2.0,  93,   2.1,   3.2,   5.0,   0.5,  0.24, 
 05/12/04, 15:00,  -2.3,  95,   2.1,   3.2,   5.0,   0.0,  0.10, 
 05/12/04, 16:00,  -2.3,  98,   2.1,   3.2,   5.0,   0.5,  0.01, 
 05/12/04, 17:00,  -2.3,  99,   2.2,   3.1,   5.0,   0.5,  0.00, 
 05/12/04, 18:00,  -2.6,  99,   2.2,   3.1,   5.0,   1.0,  0.00, 
 05/12/04, 19:00,  -2.7,  98,   2.2,   3.2,   5.1,   0.0,  0.00, 
 05/12/04, 20:00,  -3.2,  98,   2.2,   3.1,   5.0,   0.5,  0.00, 
 05/12/04, 21:00,  -3.6,  97,   2.2,   3.2,   5.1,   0.0,  0.00, 
 05/12/04, 22:00,  -3.9,  97,   2.2,   3.1,   5.0,   0.5,  0.00, 
 05/12/04, 23:00,  -5.3,  96,   2.2,   3.1,   5.0,   1.5,  0.00, 
 05/12/05, 00:00,  -5.6,  97,   2.2,   3.2,   5.1,   1.5,  0.00, 
 05/12/05, 01:00,  -5.8,  96,   2.2,   3.2,   5.1,   2.0,  0.00, 
 05/12/05, 02:00,  -6.2,  95,   2.2,   3.2,   5.0,   1.0,  0.00, 
 05/12/05, 03:00,  -7.0,  94,   2.2,   3.2,   4.9,   1.0,  0.00, 
 05/12/05, 04:00,  -7.3,  93,   2.2,   3.1,   4.9,   0.0,  0.00, 
 05/12/05, 05:00,  -7.4,  96,   2.2,   3.2,   4.9,   1.0,  0.00, 
 05/12/05, 06:00,  -7.5,  95,   2.2,   3.2,   5.0,   1.5,  0.00, 
 05/12/05, 07:00,  -7.4,  94,   2.2,   3.1,   4.9,   0.0,  0.00, 
 05/12/05, 08:00,  -7.3,  94,   2.2,   3.2,   5.0,   2.0,  0.00, 
 05/12/05, 09:00,  -7.2,  95,   2.2,   3.1,   4.9,   2.0,  0.00, 
 05/12/05, 10:00,  -6.8,  96,   2.2,   3.2,   4.9,   3.5,  0.03, 
 05/12/05, 11:00,  -6.9,  95,   2.2,   3.2,   4.9,   0.5,  0.09, 
 05/12/05, 12:00,  -6.3,  96,   2.2,   3.1,   4.9,   1.0,  0.15, 
 05/12/05, 13:00,  -6.1,  96,   2.2,   3.1,   4.9,   1.0,  0.15, 
 05/12/05, 14:00,  -5.8,  91,   2.2,   3.1,   4.9,   0.5,  0.15, 
 05/12/05, 15:00,  -6.2,  92,   2.2,   3.2,   4.9,   0.5,  0.08, 
 05/12/05, 16:00,  -6.5,  94,   2.2,   3.2,   5.0,   1.0,  0.00, 
 05/12/05, 17:00,  -6.1,  92,   2.2,   3.2,   5.0,   0.5,  0.00, 
 05/12/05, 18:00,  -5.9,  93,   2.2,   3.1,   4.9,   1.0,  0.00, 
 05/12/05, 19:00,  -5.5,  94,   2.2,   3.1,   4.9,   1.0,  0.00, 
 05/12/05, 20:00,  -5.6,  97,   2.2,   3.1,   4.9,   1.5,  0.00, 
 05/12/05, 21:00,  -5.6,  96,   2.2,   3.1,   4.9,   1.0,  0.00, 
 05/12/05, 22:00,  -5.3,  95,   2.2,   3.1,   4.9,   1.5,  0.00, 
 05/12/05, 23:00,  -5.1,  94,   2.2,   3.1,   4.9,   1.5,  0.00, 
 05/12/06, 00:00,  -5.1,  97,   2.2,   3.1,   4.9,   1.0,  0.00, 
 05/12/06, 01:00,  -4.9,  98,   2.2,   3.1,   4.9,   1.0,  0.00, 
 05/12/06, 02:00,  -4.7,  97,   2.2,   3.1,   4.9,   1.5,  0.00, 
 05/12/06, 03:00,  -4.7,  99,   2.2,   3.1,   4.9,   1.5,  0.00, 
 05/12/06, 04:00,  -4.7,  99,   2.2,   3.1,   4.9,   0.5,  0.00, 
 05/12/06, 05:00,  -4.4,  99,   2.2,   3.1,   4.9,   0.5,  0.00, 
 05/12/06, 06:00,  -4.2,  99,   2.2,   3.1,   4.9,   0.5,  0.00, 
 05/12/06, 07:00,  -4.3,  99,   2.2,   3.1,   4.8,   0.0,  0.00, 
 05/12/06, 08:00,  -3.9,  99,   2.2,   3.1,   4.8,   0.5,  0.05, 
 05/12/06, 09:00,  -2.7,  99,   2.2,   3.1,   4.9,   0.0,  0.64, 
 05/12/06, 10:00,  -1.7,  99,   2.2,   3.1,   4.9,   6.5,  1.34, 
 05/12/06, 11:00,  -1.4,  99,   2.2,   3.2,   4.9,   4.0,  1.46, 
 05/12/06, 12:00,  -2.5,  99,   2.2,   3.1,   4.9,   0.0,  0.34, 
 05/12/06, 13:00,  -2.2,  99,   2.2,   3.2,   4.9,   0.5,  0.35, 
 05/12/06, 14:00,  -2.2,  99,   2.2,   3.1,   4.9,   0.0,  0.36, 
 05/12/06, 15:00,  -2.3,  99,   2.2,   3.1,   4.9,   0.0,  0.32, 
 05/12/06, 16:00,  -2.7,  99,   2.2,   3.1,   4.9,   0.0,  0.12, 
 05/12/06, 17:00,  -3.2,  99,   2.2,   3.1,   4.9,   0.0,  0.01, 
 05/12/06, 18:00,  -3.4,  99,   2.2,   3.1,   4.9,   0.5,  0.00, 
 05/12/06, 19:00,  -3.9,  93,   2.2,   3.1,   4.9,   0.0,  0.00, 
 05/12/06, 20:00,  -4.3,  98,   2.2,   3.1,   4.9,   0.0,  0.00, 
 05/12/06, 21:00,  -4.3,  97,   2.2,   3.1,   4.9,   0.0,  0.00, 
 05/12/06, 22:00,  -4.4,  97,   2.2,   3.0,   4.9,   0.0,  0.00, 
 05/12/06, 23:00,  -4.5,  97,   2.2,   3.1,   4.9,   0.0,  0.00, 
 05/12/07, 00:00,  -4.6,  98,   2.2,   3.1,   4.9,   0.0,  0.00, 
 05/12/07, 01:00,  -6.2,  99,   2.2,   3.1,   4.9,   0.0,  0.00, 
 05/12/07, 02:00,  -5.4,  97,   2.2,   3.1,   4.9,   0.0,  0.00, 
 05/12/07, 03:00,  -5.1,  97,   2.2,   3.1,   4.9,   0.0,  0.00, 
 05/12/07, 04:00,  -6.2,  94,   2.2,   3.0,   4.9,   0.0,  0.00, 
 05/12/07, 05:00,  -7.2,  93,   2.1,   3.1,   4.9,   0.0,  0.00, 
 05/12/07, 06:00,  -6.7,  95,   2.1,   3.1,   4.9,   0.0,  0.00, 
 05/12/07, 07:00,  -6.2,  96,   2.1,   3.1,   4.9,   0.0,  0.00, 
 05/12/07, 08:00,  -6.5,  97,   2.1,   3.1,   4.9,   0.0,  0.27, 
 05/12/07, 09:00,  -4.2,  91,   2.1,   3.1,   4.9,   0.0,  0.71, 
 05/12/07, 10:00,  -3.8,  91,   2.1,   3.1,   4.9,   0.0,  0.75, 
 05/12/07, 11:00,  -3.3,  98,   2.1,   3.1,   4.9,   0.0,  0.65, 
 05/12/07, 12:00,  -3.4,  92,   2.1,   3.1,   4.9,   0.0,  0.45, 
 05/12/07, 13:00,  -3.1,  95,   2.1,   3.1,   4.9,   0.0,  0.33, 
 05/12/07, 14:00,  -3.6,  98,   2.1,   3.1,   4.9,   0.0,  0.22, 
 05/12/07, 15:00,  -3.2,  97,   2.1,   3.1,   4.8,   0.5,  0.30, 
 05/12/07, 16:00,  -3.4,  96,   2.1,   3.1,   4.8,   0.0,  0.15, 
 05/12/07, 17:00,  -4.1,  97,   2.1,   3.1,   4.8,   0.0,  0.00, 
 05/12/07, 18:00,  -3.9,  99,   2.1,   3.1,   4.8,   0.0,  0.00, 
 05/12/07, 19:00,  -4.0,  99,   2.1,   3.1,   4.8,   0.0,  0.00, 
 05/12/07, 20:00,  -4.2,  98,   2.1,   3.1,   4.8,   0.0,  0.00, 
 05/12/07, 21:00,  -3.9,  81,   2.1,   3.1,   4.8,   0.0,  0.00, 
 05/12/07, 22:00,  -3.9,  81,   2.1,   3.1,   4.8,   0.0,  0.00, 
 05/12/07, 23:00,  -4.6,  92,   2.1,   3.0,   4.7,   0.0,  0.00, 
 05/12/08, 00:00,  -4.2,  89,   2.1,   3.1,   4.7,   0.0,  0.00, 
 05/12/08, 01:00,  -4.2,  93,   2.1,   3.1,   4.7,   0.0,  0.00, 
 05/12/08, 02:00,  -4.3,  94,   2.1,   3.0,   4.7,   0.0,  0.00, 
 05/12/08, 03:00,  -3.9,  89,   2.1,   3.0,   4.7,   0.5,  0.00, 
 05/12/08, 04:00,  -4.1,  86,   2.1,   3.0,   4.7,   0.0,  0.00, 
 05/12/08, 05:00,  -3.9,  87,   2.1,   3.0,   4.7,   0.0,  0.00, 
 05/12/08, 06:00,  -3.9,  89,   2.1,   2.9,   4.7,   0.0,  0.00, 
 05/12/08, 07:00,  -4.6,  97,   2.0,   2.9,   4.7,   0.0,  0.00, 
 05/12/08, 08:00,  -3.9,  92,   2.0,   2.9,   4.7,   0.0,  0.04, 
 05/12/08, 09:00,  -4.0,  97,   2.1,   2.9,   4.7,   0.0,  0.17, 
 05/12/08, 10:00,  -3.8,  93,   2.1,   2.9,   4.7,   0.0,  0.21, 
 05/12/08, 11:00,  -3.3,  91,   2.1,   2.9,   4.7,   0.0,  0.36, 
 05/12/08, 12:00,  -3.1,  89,   2.1,   3.0,   4.8,   0.0,  0.58, 
 05/12/08, 13:00,  -2.2,  88,   2.1,   3.0,   4.8,   0.0,  0.38, 
 05/12/08, 14:00,  -2.3,  93,   2.1,   3.0,   4.8,   0.0,  0.30, 
 05/12/08, 15:00,  -2.7,  93,   2.1,   3.0,   4.8,   0.0,  0.24, 
 05/12/08, 16:00,  -3.0,  95,   2.1,   3.0,   4.8,   0.0,  0.22, 
 05/12/08, 17:00,  -3.9,  89,   2.2,   3.0,   4.8,   0.0,  0.01, 
 05/12/08, 18:00,  -4.0,  88,   2.1,   3.0,   4.8,   0.0,  0.00, 
 05/12/08, 19:00,  -4.2,  91,   2.1,   3.0,   4.8,   0.0,  0.00, 
 05/12/08, 20:00,  -4.3,  91,   2.1,   3.0,   4.7,   0.0,  0.00, 
 05/12/08, 21:00,  -4.2,  86,   2.1,   2.9,   4.6,   0.0,  0.00, 
 05/12/08, 22:00,  -4.4,  91,   2.1,   3.0,   4.7,   0.0,  0.00, 
 05/12/08, 23:00,  -4.6,  95,   2.1,   3.0,   4.7,   0.5,  0.00, 
 05/12/09, 00:00,  -4.5,  93,   2.1,   3.0,   4.7,   0.0,  0.00, 
 05/12/09, 01:00,  -4.5,  94,   2.1,   3.0,   4.6,   0.0,  0.00, 
 05/12/09, 02:00,  -4.6,  96,   2.1,   2.9,   4.6,   0.0,  0.00, 
 05/12/09, 03:00,  -4.7,  97,   2.1,   2.9,   4.6,   0.0,  0.00, 
 05/12/09, 04:00,  -4.8,  98,   2.1,   3.0,   4.6,   0.0,  0.00, 
 05/12/09, 05:00,  -4.9,  98,   2.1,   2.9,   4.6,   0.0,  0.00, 
 05/12/09, 06:00,  -4.9,  98,   2.1,   2.9,   4.6,   0.0,  0.00, 
 05/12/09, 07:00,  -5.0,  98,   2.1,   2.9,   4.6,   0.0,  0.00, 
 05/12/09, 08:00,  -4.8,  97,   2.1,   2.9,   4.6,   0.5,  0.02, 
 05/12/09, 09:00,  -4.3,  91,   2.0,   3.0,   4.6,   0.0,  0.23, 
 05/12/09, 10:00,  -3.6,  89,   2.0,   2.9,   4.6,   0.0,  0.46, 
 05/12/09, 11:00,  -3.3,  94,   2.0,   3.0,   4.7,   0.0,  0.51, 
 05/12/09, 12:00,  -2.8,  90,   2.1,   3.0,   4.7,   0.0,  0.54, 
 05/12/09, 13:00,  -3.1,  94,   2.0,   3.0,   4.7,   0.0,  0.40, 
 05/12/09, 14:00,  -2.7,  96,   2.1,   3.0,   4.7,   0.5,  0.30, 
 05/12/09, 15:00,  -2.8,  98,   2.2,   3.0,   4.7,   0.5,  0.17, 
 05/12/09, 16:00,  -2.8,  99,   2.2,   3.0,   4.7,   1.0,  0.09, 
 05/12/09, 17:00,  -3.2,  99,   2.0,   3.0,   4.7,   1.0,  0.00, 
 05/12/09, 18:00,  -3.3,  99,   2.1,   3.0,   4.7,   0.5,  0.00, 
 05/12/09, 19:00,  -3.7,  99,   2.0,   3.0,   4.7,   0.0,  0.00, 
 05/12/09, 20:00,  -3.8,  99,   2.0,   3.0,   4.7,   0.0,  0.00, 
 05/12/09, 21:00,  -3.8,  99,   2.0,   3.0,   4.7,   0.5,  0.00, 
 05/12/09, 22:00,  -3.9,  99,   2.0,   3.0,   4.7,   0.5,  0.00, 
 05/12/09, 23:00,  -4.1,  99,   2.0,   3.0,   4.7,   0.5,  0.00, 
 05/12/10, 00:00,  -4.3,  99,   2.0,   3.0,   4.7,   0.5,  0.00, 
 05/12/10, 01:00,  -4.3,  99,   2.0,   3.0,   4.7,   0.0,  0.00, 
 05/12/10, 02:00,  -4.4,  98,   2.0,   2.9,   4.7,   0.5,  0.00, 
 05/12/10, 03:00,  -4.7,  98,   2.0,   2.9,   4.5,   0.0,  0.00, 
 05/12/10, 04:00,  -5.1,  97,   2.0,   2.8,   4.5,   0.0,  0.00, 
 05/12/10, 05:00,  -4.8,  96,   2.0,   2.8,   4.5,   0.5,  0.00, 
 05/12/10, 06:00,  -4.8,  97,   2.0,   2.8,   4.5,   0.0,  0.00, 
 05/12/10, 07:00,  -4.8,  98,   2.0,   2.8,   4.5,   0.0,  0.00, 
 05/12/10, 08:00,  -4.8,  99,   2.0,   2.9,   4.5,   0.0,  0.00, 
 05/12/10, 09:00,  -4.3,  98,   2.0,   2.8,   4.5,   0.5,  0.11, 
 05/12/10, 10:00,  -3.8,  99,   2.0,   2.8,   4.5,   0.5,  0.18, 
 05/12/10, 11:00,  -3.7,  99,   2.0,   2.8,   4.5,   0.0,  0.13, 
 05/12/10, 12:00,  -3.2,  99,   2.0,   2.8,   4.5,   1.5,  0.17, 
 05/12/10, 13:00,  -2.9,  99,   2.0,   2.8,   4.5,   1.0,  0.20, 
 05/12/10, 14:00,  -2.8,  99,   2.0,   2.8,   4.5,   1.5,  0.15, 
 05/12/10, 15:00,  -2.8,  99,   2.0,   2.8,   4.5,   1.0,  0.11, 
 05/12/10, 16:00,  -3.0,  99,   2.0,   2.8,   4.5,   1.0,  0.07, 
 05/12/10, 17:00,  -3.1,  99,   2.0,   2.8,   4.5,   1.0,  0.00, 
 05/12/10, 18:00,  -3.6,  98,   2.0,   2.8,   4.5,   0.0,  0.00, 
 05/12/10, 19:00,  -3.8,  99,   2.0,   2.8,   4.5,   0.0,  0.00, 
 05/12/10, 20:00,  -3.8,  99,   2.0,   2.8,   4.5,   1.0,  0.00, 
 05/12/10, 21:00,  -3.7,  99,   2.0,   2.8,   4.5,   0.5,  0.00, 
 05/12/10, 22:00,  -3.7,  99,   2.0,   2.8,   4.5,   0.5,  0.00, 
 05/12/10, 23:00,  -3.7,  99,   2.0,   2.8,   4.5,   1.0,  0.00, 
 05/12/11, 00:00,  -3.8,  99,   2.0,   2.8,   4.5,   1.5,  0.00, 
 05/12/11, 01:00,  -3.9,  99,   2.0,   2.8,   4.5,   0.5,  0.00, 
 05/12/11, 02:00,  -4.4,  98,   2.0,   2.8,   4.5,   1.0,  0.00, 
 05/12/11, 03:00,  -4.7,  97,   2.0,   2.8,   4.5,   0.5,  0.00, 
 05/12/11, 04:00,  -5.6,  95,   2.0,   2.8,   4.5,   1.0,  0.00, 
 05/12/11, 05:00,  -5.8,  93,   2.0,   2.8,   4.5,   0.0,  0.00, 
 05/12/11, 06:00,  -6.0,  94,   2.0,   2.8,   4.5,   0.5,  0.00, 
 05/12/11, 07:00,  -6.2,  94,   2.0,   2.8,   4.5,   0.0,  0.00, 
 05/12/11, 08:00,  -6.3,  94,   1.9,   2.8,   4.5,   0.0,  0.01, 
 05/12/11, 09:00,  -6.0,  94,   1.9,   2.8,   4.4,   0.0,  0.18, 
 05/12/11, 10:00,  -5.1,  92,   1.9,   2.8,   4.4,   0.0,  0.43, 
 05/12/11, 11:00,  -5.2,  98,   2.0,   2.8,   4.4,   0.5,  0.55, 
 05/12/11, 12:00,  -5.3,  96,   2.0,   2.8,   4.4,   0.0,  0.43, 
 05/12/11, 13:00,  -4.9,  96,   2.0,   2.8,   4.4,   0.0,  0.42, 
 05/12/11, 14:00,  -5.7,  97,   1.9,   2.8,   4.4,   0.0,  0.34, 
 05/12/11, 15:00,  -5.1,  95,   2.0,   2.8,   4.4,   0.0,  0.51, 
 05/12/11, 16:00,  -5.7,  90,   2.0,   2.8,   4.4,   0.0,  0.18, 
 05/12/11, 17:00,  -6.4,  97,   2.0,   2.8,   4.4,   0.0,  0.05, 
 05/12/11, 18:00,  -6.8,  97,   1.9,   2.8,   4.4,   0.0,  0.00, 
 05/12/11, 19:00,  -7.1,  95,   2.0,   2.8,   4.4,   0.0,  0.00, 
 05/12/11, 20:00,  -7.5,  94,   1.9,   2.8,   4.4,   0.0,  0.00, 
 05/12/11, 21:00,  -7.8,  95,   1.8,   2.8,   4.4,   0.0,  0.00, 
 05/12/11, 22:00,  -7.8,  95,   1.8,   2.8,   4.4,   0.0,  0.00, 
 05/12/11, 23:00,  -8.1,  97,   1.8,   2.7,   4.4,   0.0,  0.00, 
 05/12/12, 00:00,  -9.7,  92,   1.9,   2.8,   4.4,   0.0,  0.00, 
 05/12/12, 01:00,  -8.6,  93,   1.8,   2.7,   4.4,   0.0,  0.00, 
 05/12/12, 02:00,  -8.6,  95,   1.8,   2.7,   4.4,   0.0,  0.00, 
 05/12/12, 03:00,  -9.2,  92,   1.8,   2.7,   4.4,   0.0,  0.00, 
 05/12/12, 04:00,  -9.4,  93,   1.8,   2.7,   4.4,   0.0,  0.00, 
 05/12/12, 05:00,  -8.6,  89,   1.8,   2.7,   4.4,   0.0,  0.00, 
 05/12/12, 06:00,  -8.9,  92,   1.8,   2.7,   4.4,   0.0,  0.00, 
 05/12/12, 07:00,  -8.8,  90,   1.8,   2.7,   4.4,   0.0,  0.00, 
 05/12/12, 08:00,  -7.7,  89,   1.8,   2.7,   4.4,   0.0,  0.03, 
 05/12/12, 09:00,  -6.6,  88,   1.8,   2.7,   4.4,   0.0,  0.21, 
 05/12/12, 10:00,  -5.7,  88,   1.8,   2.7,   4.4,   0.5,  0.41, 
 05/12/12, 11:00,  -4.3,  87,   1.9,   2.7,   4.4,   0.0,  1.25, 
 05/12/12, 12:00,  -4.6,  94,   1.9,   2.7,   4.4,   0.0,  0.66, 
 05/12/12, 13:00,  -4.7,  93,   1.9,   2.7,   4.4,   0.0,  0.29, 
 05/12/12, 14:00,  -4.5,  92,   1.8,   2.7,   4.4,   0.0,  0.35, 
 05/12/12, 15:00,  -4.7,  91,   1.9,   2.7,   4.4,   0.0,  0.31, 
 05/12/12, 16:00,  -5.5,  96,   1.9,   2.7,   4.4,   0.0,  0.07, 
 05/12/12, 17:00,  -5.9,  96,   1.9,   2.7,   4.4,   0.5,  0.00, 
 05/12/12, 18:00,  -6.2,  96,   1.9,   2.7,   4.3,   1.0,  0.00, 
 05/12/12, 19:00,  -6.3,  97,   1.9,   2.7,   4.3,   1.0,  0.00, 
 05/12/12, 20:00,  -6.6,  97,   1.9,   2.7,   4.3,   0.5,  0.00, 
 05/12/12, 21:00,  -7.2,  94,   1.9,   2.7,   4.3,   0.5,  0.00, 
 05/12/12, 22:00,  -7.2,  96,   1.9,   2.7,   4.3,   4.0,  0.00, 
 05/12/12, 23:00,  -7.5,  95,   1.9,   2.7,   4.3,   1.5,  0.00, 
 05/12/13, 00:00,  -7.9,  96,   1.9,   2.7,   4.3,   0.0,  0.00, 
 05/12/13, 01:00,  -8.6,  93,   1.9,   2.7,   4.3,   0.0,  0.00, 
 05/12/13, 02:00,  -8.8,  92,   1.9,   2.7,   4.3,   0.0,  0.00, 
 05/12/13, 03:00,  -8.8,  92,   1.9,   2.7,   4.3,   0.5,  0.00, 
 05/12/13, 04:00,  -9.1,  90,   1.9,   2.7,   4.3,   0.0,  0.00, 
 05/12/13, 05:00,  -9.4,  91,   1.8,   2.7,   4.3,   0.5,  0.00, 
 05/12/13, 06:00,  -9.3,  94,   1.8,   2.7,   4.3,   0.0,  0.00, 
 05/12/13, 07:00,  -9.4,  90,   1.8,   2.7,   4.3,   1.0,  0.00, 
 05/12/13, 08:00,  -9.2,  94,   1.8,   2.7,   4.3,   0.5,  0.00, 
 05/12/13, 09:00,  -8.8,  93,   1.9,   2.7,   4.3,   1.0,  0.11, 
 05/12/13, 10:00,  -8.1,  95,   1.8,   2.7,   4.3,   0.5,  0.26, 
 05/12/13, 11:00,  -7.6,  93,   1.8,   2.7,   4.3,   0.5,  0.50, 
 05/12/13, 12:00,  -6.9,  86,   1.9,   2.7,   4.3,   0.0,  0.53, 
 05/12/13, 13:00,  -6.8,  85,   1.9,   2.7,   4.3,   0.0,  0.59, 
 05/12/13, 14:00,  -6.6,  86,   1.9,   2.7,   4.3,   0.0,  0.59, 
 05/12/13, 15:00,  -7.5,  94,   1.9,   2.7,   4.3,   0.5,  0.19, 
 05/12/13, 16:00,  -7.6,  95,   1.9,   2.7,   4.3,   0.0,  0.07, 
 05/12/13, 17:00,  -7.8,  94,   1.9,   2.7,   4.3,   0.5,  0.00, 
 05/12/13, 18:00,  -8.3,  92,   1.9,   2.7,   4.3,   0.5,  0.00, 
 05/12/13, 19:00,  -8.5,  90,   1.8,   2.7,   4.3,   0.5,  0.00, 
 05/12/13, 20:00,  -8.8,  94,   1.8,   2.7,   4.3,   0.0,  0.00, 
 05/12/13, 21:00,  -8.8,  95,   1.8,   2.7,   4.3,   0.5,  0.00, 
 05/12/13, 22:00,  -8.8,  94,   1.8,   2.7,   4.3,   0.0,  0.00, 
 05/12/13, 23:00,  -9.4,  94,   1.8,   2.7,   4.3,   0.5,  0.00, 
 05/12/14, 00:00,  -9.2,  93,   1.8,   2.7,   4.3,   0.0,  0.00, 
 05/12/14, 01:00,  -9.2,  93,   1.8,   2.7,   4.3,   0.5,  0.00, 
 05/12/14, 02:00,  -9.0,  93,   1.8,   2.7,   4.3,   0.5,  0.00, 
 05/12/14, 03:00,  -9.5,  93,   1.8,   2.7,   4.3,   0.0,  0.00, 
 05/12/14, 04:00,  -9.6,  93,   1.8,   2.7,   4.3,   0.5,  0.00, 
 05/12/14, 05:00,  -9.5,  90,   1.8,   2.7,   4.3,   0.0,  0.00, 
 05/12/14, 06:00,  -8.9,  94,   1.8,   2.6,   4.2,   0.0,  0.00, 
 05/12/14, 07:00,  -9.1,  95,   1.8,   2.6,   4.2,   0.5,  0.00, 
 05/12/14, 08:00,  -8.1,  94,   1.8,   2.6,   4.2,   0.0,  0.00, 
 05/12/14, 09:00,  -7.2,  96,   1.8,   2.6,   4.2,   0.5,  0.09, 
 05/12/14, 10:00,  -6.3,  94,   1.9,   2.6,   4.2,   0.0,  0.19, 
 05/12/14, 11:00,  -5.9,  94,   1.9,   2.7,   4.2,   0.5,  0.23, 
 05/12/14, 12:00,  -5.3,  91,   1.9,   2.7,   4.3,   0.0,  0.26, 
 05/12/14, 13:00,  -4.5,  91,   1.9,   2.7,   4.3,   0.0,  0.23, 
 05/12/14, 14:00,  -5.6,  93,   2.0,   2.7,   4.3,   0.5,  0.12, 
 05/12/14, 15:00,  -6.1,  93,   2.0,   2.7,   4.3,   0.5,  0.06, 
 05/12/14, 16:00,  -6.6,  93,   2.0,   2.7,   4.3,   0.0,  0.00, 
 05/12/14, 17:00,  -7.1,  94,   2.0,   2.7,   4.3,   1.0,  0.00, 
 05/12/14, 18:00,  -7.2,  95,   1.9,   2.7,   4.3,   0.5,  0.00, 
 05/12/14, 19:00,  -7.2,  96,   1.9,   2.6,   4.2,   2.0,  0.00, 
 05/12/14, 20:00,  -7.9,  94,   1.9,   2.6,   4.2,   0.5,  0.00, 
 05/12/14, 21:00,  -8.3,  92,   1.9,   2.6,   4.2,   0.0,  0.00, 
 05/12/14, 22:00, -10.1,  96,   1.9,   2.6,   4.2,   0.0,  0.00, 
 05/12/14, 23:00,  -9.4,  95,   1.9,   2.6,   4.2,   0.5,  0.00, 
 05/12/15, 00:00, -10.3,  93,   1.9,   2.7,   4.2,   0.0,  0.00, 
 05/12/15, 01:00,  -9.2,  91,   1.9,   2.6,   4.2,   0.0,  0.00, 
 05/12/15, 02:00, -10.2,  90,   1.9,   2.6,   4.2,   0.0,  0.00, 
 05/12/15, 03:00, -10.7,  93,   1.9,   2.7,   4.2,   0.0,  0.00, 
 05/12/15, 04:00,  -9.8,  90,   1.9,   2.6,   4.2,   0.0,  0.00, 
 05/12/15, 05:00, -10.4,  92,   1.9,   2.6,   4.2,   0.0,  0.00, 
 05/12/15, 06:00, -11.8,  88,   1.9,   2.6,   4.2,   0.0,  0.00, 
 05/12/15, 07:00, -12.4,  87,   1.8,   2.6,   4.2,   0.0,  0.00, 
 05/12/15, 08:00, -11.2,  87,   1.8,   2.6,   4.2,   0.0,  0.02, 
 05/12/15, 09:00,  -8.3,  91,   1.8,   2.6,   4.2,   0.0,  0.25, 
 05/12/15, 10:00,  -4.9,  84,   1.8,   2.6,   4.2,   0.0,  0.42, 
 05/12/15, 11:00,  -4.9,  83,   1.8,   2.7,   4.2,   0.0,  0.60, 
 05/12/15, 12:00,  -4.2,  82,   1.8,   2.7,   4.3,   0.0,  0.69, 
 05/12/15, 13:00,  -3.9,  80,   1.8,   2.7,   4.2,   0.5,  0.51, 
 05/12/15, 14:00,  -4.9,  83,   1.8,   2.6,   4.2,   0.0,  0.28, 
 05/12/15, 15:00,  -5.4,  82,   1.8,   2.6,   4.2,   0.0,  0.22, 
 05/12/15, 16:00,  -6.2,  81,   1.8,   2.6,   4.2,   0.0,  0.21, 
 05/12/15, 17:00,  -7.7,  82,   1.8,   2.7,   4.2,   0.0,  0.04, 
 05/12/15, 18:00,  -8.0,  82,   1.8,   2.6,   4.2,   0.0,  0.00, 
 05/12/15, 19:00,  -7.1,  80,   1.8,   2.6,   4.2,   0.0,  0.00, 
 05/12/15, 20:00,  -7.4,  82,   1.8,   2.6,   4.2,   0.0,  0.00, 
 05/12/15, 21:00,  -7.3,  83,   1.8,   2.6,   4.2,   0.0,  0.00, 
 05/12/15, 22:00,  -7.2,  86,   1.8,   2.7,   4.2,   0.0,  0.00, 
 05/12/15, 23:00,  -7.4,  86,   1.8,   2.6,   4.1,   0.0,  0.00, 
 05/12/16, 00:00,  -7.8,  86,   1.8,   2.6,   4.1,   0.0,  0.00, 
 05/12/16, 01:00,  -7.4,  85,   1.8,   2.7,   4.1,   0.0,  0.00, 